Location: *
(49.4547°N, 7.9131°E)
Time: 23:32:20
(UTC+00:00)

ERS-1 Rocket - Pass Details

Date: 22 September 2019
Orbit: 754 x 757 km, 98.5° (Epoch: 17 October)

Event Time Altitude Azimuth Distance (km) Brightness Sun altitude
Exits shadow 21:00:52 45° 334° (NNW) 1,028 3.9 -32.0°
Drops below altitude 10° 21:04:22 10° 343° (NNW) 2,294 6.2 -32.4°
Sets 21:06:41 0° 345° (NNW) 3,225 7.1 -32.6°
